Latest Coastal Weather Observations for Spring Bay

IDT60701

Issued at 1:22 pm EDT Thursday 19 January 2017 (issued every 10 minutes, with the page automatically refreshed every 10 minutes)

About coastal observations | Map of coastal stations | Coastal observations for TAS | Marine services | Other Formats
Station Details ID: 092133 Name: SPRING BAY NTC AWS Lat: -42.55 Lon: 147.93 Height: 0.0 m
Data from the previous 72 hours. | See also: Recent months for locations in Tasmania
Date/Time
EDT
Temp
°C
Wind Pressure Rain since
9am
mm
Weather Cloud Vis
km
Sea
Height
m
Swell
Dir  Spd
kts
Gust
kts
hPa Trend Height
m
Period
s
Dir
19/01:00pm 15.7 - - - 1015.6 - - - - - - - - -
19/12:30pm 15.8 - - - 1016.1 - - - - - - - - -
19/12:00pm 15.2 - - - 1016.3 - - - - - - - - -
19/11:30am 15.1 - - - 1016.6 - - - - - - - - -
19/11:00am 15.0 - - - 1016.9 - - - - - - - - -
19/10:30am 14.8 - - - 1017.4 - - - - - - - - -
19/10:00am 14.0 - - - 1017.6 - - - - - - - - -
19/09:30am 14.1 - - - 1017.7 - - - - - - - - -
19/09:00am 13.8 - - - 1017.8 - - - - - - - - -
19/08:30am 13.2 - - - 1017.8 - - - - - - - - -
19/08:00am 12.6 - - - 1017.7 - - - - - - - - -
19/07:30am 11.7 - - - 1017.5 - - - - - - - - -
19/07:00am 10.7 - - - 1017.1 - - - - - - - - -
19/06:30am 10.7 - - - 1016.9 - - - - - - - - -
19/06:00am 10.9 - - - 1016.6 - - - - - - - - -
19/05:30am 10.4 - - - 1016.5 - - - - - - - - -
19/05:00am 11.4 - - - 1016.2 - - - - - - - - -
19/04:30am 11.9 - - - 1016.0 - - - - - - - - -
19/04:00am 12.4 - - - 1015.9 - - - - - - - - -
19/03:30am 12.4 - - - 1016.2 - - - - - - - - -
19/03:00am 13.1 - - - 1016.3 - - - - - - - - -
19/02:30am 13.5 - - - 1016.5 - - - - - - - - -
19/02:00am 13.8 - - - 1016.3 - - - - - - - - -
19/01:30am 13.4 - - - 1016.5 - - - - - - - - -
19/01:00am 13.4 - - - 1016.4 - - - - - - - - -
19/12:30am 13.7 - - - 1016.2 - - - - - - - - -
19/12:00am 14.2 - - - 1016.0 - - - - - - - - -
 
Date/Time
EDT
Temp
°C
Wind Pressure Rain since
9am
mm
Weather Cloud Vis
km
Sea
Height
m
Swell
Dir  Spd
kts
Gust
kts
hPa Trend Height
m
Period
s
Dir
18/11:30pm 14.5 - - - 1016.1 - - - - - - - - -
18/11:00pm 14.7 - - - 1016.1 - - - - - - - - -
18/10:30pm 14.9 - - - 1015.8 - - - - - - - - -
18/10:00pm 15.0 - - - 1015.7 - - - - - - - - -
18/09:30pm 15.3 - - - 1015.3 - - - - - - - - -
18/09:00pm 15.1 - - - 1015.1 - - - - - - - - -
18/08:30pm 15.5 - - - 1014.4 - - - - - - - - -
18/08:00pm 16.2 - - - 1013.7 - - - - - - - - -
18/07:30pm 16.5 - - - 1013.2 - - - - - - - - -
18/07:00pm 17.0 - - - 1012.4 - - - - - - - - -
18/06:30pm 17.2 - - - 1011.9 - - - - - - - - -
18/06:00pm 17.8 - - - 1011.5 - - - - - - - - -
18/05:30pm 17.7 - - - 1011.1 - - - - - - - - -
18/05:00pm 17.7 - - - 1010.8 - - - - - - - - -
18/04:30pm 17.6 - - - 1010.8 - - - - - - - - -
18/04:00pm 17.2 - - - 1010.6 - - - - - - - - -
18/03:30pm 17.3 - - - 1010.1 - - - - - - - - -
18/03:00pm 17.5 - - - 1009.5 - - - - - - - - -
18/02:30pm 17.3 - - - 1009.2 - - - - - - - - -
18/02:00pm 16.9 - - - 1009.0 - - - - - - - - -
18/01:30pm 17.0 - - - 1008.9 - - - - - - - - -
18/01:00pm 16.5 - - - 1008.8 - - - - - - - - -
18/12:30pm 16.8 - - - 1008.0 - - - - - - - - -
18/12:00pm 16.6 - - - 1007.8 - - - - - - - - -
18/11:30am 16.3 - - - 1007.2 - - - - - - - - -
18/11:00am 16.2 - - - 1006.6 - - - - - - - - -
18/10:30am 16.2 - - - 1006.2 - - - - - - - - -
18/10:00am 15.8 - - - 1005.8 - - - - - - - - -
18/09:30am 15.7 - - - 1005.4 - - - - - - - - -
18/09:00am 15.7 - - - 1005.2 - - - - - - - - -
18/08:30am 15.4 - - - 1004.9 - - - - - - - - -
18/08:00am 14.9 - - - 1004.4 - - - - - - - - -
18/07:30am 15.0 - - - 1004.2 - - - - - - - - -
18/07:00am 14.9 - - - 1003.2 - - - - - - - - -
18/06:30am 15.1 - - - 1002.4 - - - - - - - - -
18/06:00am 14.8 - - - 1002.1 - - - - - - - - -
18/05:30am 15.2 - - - 1001.7 - - - - - - - - -
18/05:00am 15.4 - - - 1001.1 - - - - - - - - -
18/04:30am 15.7 - - - 1000.7 - - - - - - - - -
18/04:00am 16.0 - - - 1000.4 - - - - - - - - -
18/03:30am 16.4 - - - 1000.9 - - - - - - - - -
18/03:00am 17.0 - - - 1000.6 - - - - - - - - -
18/02:30am 17.8 - - - 1000.4 - - - - - - - - -
18/02:00am 18.1 - - - 1000.5 - - - - - - - - -
18/01:30am 18.2 - - - 1000.6 - - - - - - - - -
18/01:00am 17.2 - - - 1000.7 - - - - - - - - -
18/12:30am 16.4 - - - 1001.2 - - - - - - - - -
18/12:00am 16.3 - - - 1001.6 - - - - - - - - -
 
Date/Time
EDT
Temp
°C
Wind Pressure Rain since
9am
mm
Weather Cloud Vis
km
Sea
Height
m
Swell
Dir  Spd
kts
Gust
kts
hPa Trend Height
m
Period
s
Dir
17/11:30pm 16.4 - - - 1002.1 - - - - - - - - -
17/11:00pm 16.6 - - - 1001.7 - - - - - - - - -
17/10:30pm 16.6 - - - 1002.4 - - - - - - - - -
17/10:00pm 16.7 - - - 1002.3 - - - - - - - - -
17/09:30pm 17.0 - - - 1002.1 - - - - - - - - -
17/09:00pm 17.1 - - - 1002.6 - - - - - - - - -
17/08:30pm 17.2 - - - 1002.6 - - - - - - - - -
17/08:00pm 17.3 - - - 1002.3 - - - - - - - - -
17/07:30pm 17.7 - - - 1002.3 - - - - - - - - -
17/07:00pm 17.9 - - - 1002.2 - - - - - - - - -
17/06:30pm 17.9 - - - 1001.8 - - - - - - - - -
17/06:00pm 18.2 - - - 1002.2 - - - - - - - - -
17/05:30pm 18.4 - - - 1002.2 - - - - - - - - -
17/05:00pm 18.9 - - - 1002.1 - - - - - - - - -
17/04:30pm 18.4 - - - 1002.4 - - - - - - - - -
17/04:00pm 18.6 - - - 1002.7 - - - - - - - - -
17/03:30pm 18.6 - - - 1002.5 - - - - - - - - -
17/03:00pm 18.1 - - - 1002.6 - - - - - - - - -
17/02:30pm 18.8 - - - 1002.7 - - - - - - - - -
17/02:00pm 19.1 - - - 1002.5 - - - - - - - - -
17/01:30pm 19.9 - - - 1002.4 - - - - - - - - -
17/01:00pm 20.4 - - - 1002.8 - - - - - - - - -
17/12:30pm 19.5 - - - 1002.8 - - - - - - - - -
17/12:00pm 21.5 - - - 1002.9 - - - - - - - - -
17/11:30am 20.3 - - - 1003.4 - - - - - - - - -
17/11:00am 20.5 - - - 1003.7 - - - - - - - - -
17/10:30am 19.4 - - - 1004.0 - - - - - - - - -
17/10:00am 19.8 - - - 1004.6 - - - - - - - - -
17/09:30am 18.2 - - - 1005.3 - - - - - - - - -
17/09:00am 17.8 - - - 1005.4 - - - - - - - - -
17/08:30am 18.8 - - - 1005.7 - - - - - - - - -
17/08:00am 18.2 - - - 1005.5 - - - - - - - - -
17/07:30am 15.9 - - - 1005.3 - - - - - - - - -
17/07:00am 15.8 - - - 1004.7 - - - - - - - - -
17/06:30am 14.4 - - - 1004.7 - - - - - - - - -
17/06:00am 14.1 - - - 1004.1 - - - - - - - - -
17/05:30am 14.6 - - - 1004.0 - - - - - - - - -
17/05:00am 15.5 - - - 1003.9 - - - - - - - - -
17/04:30am 15.8 - - - 1003.6 - - - - - - - - -
17/04:00am 14.6 - - - 1003.6 - - - - - - - - -
17/03:30am 15.3 - - - 1003.3 - - - - - - - - -
17/03:00am 15.1 - - - 1003.7 - - - - - - - - -
17/02:30am 15.9 - - - 1004.1 - - - - - - - - -
17/02:00am 16.4 - - - 1004.3 - - - - - - - - -
17/01:30am 15.4 - - - 1004.7 - - - - - - - - -
17/01:00am 16.1 - - - 1005.1 - - - - - - - - -
17/12:30am 16.7 - - - 1005.2 - - - - - - - - -

Other Formats:

Comma delimited format used in spreadsheet applications
http://www.bom.gov.au/fwo/IDT60701/IDT60701.95987.axf

JavaScript Object Notation format (JSON) in row-major order
http://www.bom.gov.au/fwo/IDT60701/IDT60701.95987.json